Location: Maiden
(35.5760°N, 81.2120°W)
Time: 15:26:04
(UTC-04:00)

Cosmos 2227 - Pass Details

Date: 14 June 2018
Orbit: 834 x 862 km, 71.0° (Epoch: 24 June)

Event Time Altitude Azimuth Distance (km) Brightness Sun altitude
Rises 21:36:54 0° 198° (SSW) 3,368 7.1 -10.1°
Reaches altitude 10° 21:39:19 10° 198° (SSW) 2,440 6.4 -10.5°
Maximum altitude 21:44:56 86° 110° (ESE) 847 4.2 -11.4°
Drops below altitude 10° 21:50:37 10° 22° (NNE) 2,471 6.9 -12.3°
Sets 21:53:04 0° 22° (NNE) 3,414 7.6 -12.6°
